Content
SEND FEEDBACK

Daily
Averages
Monthly
Summary
United States of America

HENNESSEY, OKLAHOMA


Home > North America > United States > Oklahoma
Elevation: 1142 feet     Latitude: 36 05N     Longitude: 097 53W

WEATHER
 
SELECT A DAY
Number of Records: 25,137;   Date Range: 9/1/12 - 8/12/14
 
SHARE

PRINT THIS DATA

[ ← Previous Day ]
WEATHER ALMANAC - JANUARY 23, 2013
[ Next Day → ]
[ °C ]   °F
Weather ElementAverageHighLow
Temperature38.5 °F62.6 °F (2:59 pm)23 °F (6:17 am)
Dewpoint28.6 °F39.2 °F (3:50 pm) (7:00 pm)
Humidity72.4 %93 % (6:17 am)39 % (2:59 pm)
Barometer30.17 in30.21 in (10:50 am)30.11 in (2:59 pm)
Wind Speed7.4 mph17.3 mph (11:55 pm)
Weather ElementAverage
Visibility9.3 mi
Wind DirectionSSE (172.2 °)

Weather ElementTotal
Precipitation---
Heating Degree Days22.2 (Base 65)
Averaged from 41 records on January 23, 2013
WEATHER CONDITIONS BREAKOUT
WIND DIRECTION BREAKOUT
WEATHER BY HOUR - JANUARY 23, 2013
[ °C ]   °F
Local TimeTemperatureDewpointHumidityBarometerVisibilityWind DirectionWind SpeedGust SpeedPrecipitationEventsConditions
12:35 AM28.4 °F23.0 °F80 %30.20 in10.0 miNorth (360°)6.9 mphClear
12:55 AM28.4 °F23.0 °F80 %30.19 in10.0 miNorth (350°)4.6 mphClear
1:15 AM28.4 °F23.0 °F80 %30.18 in10.0 miNorth (360°)3.5 mphClear
1:35 AM28.4 °F23.0 °F80 %30.18 in10.0 miNorth (360°)6.9 mphClear
1:55 AM26.6 °F21.2 °F80 %30.18 in10.0 miNNW (340°)5.8 mphClear
2:15 AM26.6 °F23.0 °F86 %30.17 in10.0 miNorth (360°)3.5 mphClear
2:35 AM26.6 °F23.0 °F86 %30.18 in10.0 miNorth (350°)6.9 mphClear
2:55 AM28.4 °F23.0 °F80 %30.19 in10.0 miNorth (10°)8.1 mphClear
3:15 AM28.4 °F23.0 °F80 %30.19 in10.0 miNorth (360°)8.1 mphClear
3:35 AM26.6 °F23.0 °F86 %30.19 in10.0 miNorth (350°)4.6 mphClear
3:55 AM26.6 °F21.2 °F80 %30.18 in10.0 miNorth (350°)5.8 mphClear
4:15 AM24.8 °F21.2 °F86 %30.18 in10.0 miNorth (10°)3.5 mphClear
4:35 AM24.8 °F21.2 °F86 %30.18 in10.0 miNNW (340°)4.6 mphClear
4:55 AM24.8 °F21.2 °F86 %30.17 in10.0 miNNW (340°)3.5 mphClear
6:17 AM23.0 °F21.2 °F93 %30.19 in10.0 miNorth (360°)6.9 mphClear
6:50 AM24.8 °F21.2 °F86 %30.17 in10.0 miCalmClear
7:50 AM23.0 °F19.4 °F86 %30.18 in10.0 miNorth (350°)6.9 mphScattered Clouds
8:50 AM30.2 °F26.6 °F86 %30.20 in7.0 miNorth (360°)5.8 mphScattered Clouds
10:50 AM48.2 °F32.0 °F54 %30.21 in7.0 miSSW (210°)5.8 mphScattered Clouds
11:50 AM53.6 °F33.8 °F47 %30.19 in7.0 miSouth (170°)5.8 mphScattered Clouds
12:50 PM59.0 °F35.6 °F42 %30.13 in7.0 miSouth (170°)12.7 mphMostly Cloudy
1:50 PM59.0 °F37.4 °F45 %30.12 in7.0 miSouth (190°)10.4 mphMostly Cloudy
2:59 PM62.6 °F37.4 °F39 %30.11 in7.0 miSSE (160°)6.9 mphMostly Cloudy
3:50 PM60.8 °F39.2 °F45 %30.11 in7.0 miSouth (180°)8.1 mphMostly Cloudy
4:50 PM59.0 °F39.2 °F48 %30.11 in7.0 miCalmMostly Cloudy
5:55 PM51.8 °F37.4 °F58 %30.11 in7.0 miCalmMostly Cloudy
6:50 PM46.4 °F0.0 °F30.14 in7.0 miNorth (10°)8.1 mphMostly Cloudy
7:50 PM48.2 °F35.6 °F62 %30.14 in10.0 miNNE (20°)11.5 mphMostly Cloudy
8:15 PM44.6 °F35.6 °F71 %30.15 in10.0 miNNE (30°)10.4 mphScattered Clouds
8:35 PM44.6 °F33.8 °F66 %30.16 in10.0 miNNE (30°)10.4 mphScattered Clouds
8:50 PM44.6 °F35.6 °F71 %30.16 in10.0 miNNE (20°)11.5 mphMostly Cloudy
8:55 PM42.8 °F33.8 °F70 %30.16 in10.0 miNNE (30°)8.1 mphClear
9:15 PM42.8 °F33.8 °F70 %30.16 in10.0 miNNE (30°)9.2 mphClear
9:35 PM42.8 °F35.6 °F76 %30.17 in10.0 miNNE (30°)9.2 mphClear
9:55 PM41.0 °F33.8 °F76 %30.17 in10.0 miNNE (20°)6.9 mphClear
10:15 PM41.0 °F33.8 °F76 %30.18 in10.0 miNNE (20°)10.4 mphClear
10:35 PM42.8 °F33.8 °F70 %30.18 in10.0 miNorth (10°)10.4 mphClear
10:55 PM41.0 °F33.8 °F76 %30.19 in10.0 miNorth (360°)11.5 mphClear
11:15 PM41.0 °F33.8 °F76 %30.21 in10.0 miNorth (10°)9.2 mphClear
11:35 PM41.0 °F33.8 °F76 %30.21 in10.0 miNorth (10°)15.0 mphClear
11:55 PM41.0 °F33.8 °F76 %30.21 in10.0 miNE (40°)17.3 mphClear
Hourly data recorded from KWDG, located miles away from Hennessey, Oklahoma







STORIES FROM OUR PARTNERS